#timestamp,LO_Frequency,Hit,StdDev 
1538420415.0,286047001.1,P
1538420415.9,286047001.1,P
1538420435.7,286046998.2,P
1538420455.6,286046998.3,N
1538420475.4,286046998.4,N
1538420495.3,286046999.4,N
1538420515.1,286046996.9,N
1538420516.0,286046996.9,N
1538420535.8,286046998.6,N
1538420555.7,286046996.6,N
1538420575.5,286046999.4,N
1538420595.3,286047002.1,N
1538420615.2,286047003.5,N
1538420635.0,286047005.2,N
1538420635.9,286047005.2,N
1538420655.8,286047005.5,N
1538420675.6,286047007.6,N
1538420695.4,286047001.7,N
1538420715.3,286047001.7,N
1538420735.1,286047002.2,N
1538420736.0,286047002.2,N
1538420755.8,286046999.7,N
1538420775.7,286046999.8,N
1538420795.5,286047000.9,N
1538420815.3,286047003.4,N
1538420835.2,286047002.5,N
1538420855.0,286047002.2,N
1538420855.9,286047002.2,N
1538420875.8,286046999.7,N
1538420895.6,286046998.6,N
1538420915.4,286047001.9,N
1538420935.3,286046998.1,N
1538420955.1,286046999.8,N
1538420975.9,286047000.6,N
1538420995.7,286046999.2,N
1538421015.5,286046996.7,N
1538421035.4,286046999.1,N
1538421055.2,286046998.6,N
1538421075.0,286047002.8,N
1538421075.9,286047002.8,N
1538421095.8,286047001.8,N
1538421115.6,286047001.8,N
1538421135.4,286047000.8,N
1538421155.3,286047002.5,N
1538421175.1,286047003.6,N
1538421195.9,286047002.4,N
1538421215.7,286047001.0,N
1538421235.5,286047000.5,N
1538421255.4,286046998.3,N
1538421275.2,286047000.4,N
1538421295.1,286046999.5,N
1538421296.0,286046999.5,N
1538421315.8,286046998.7,N
1538421335.6,286046998.2,N
1538421385.5,286047000.0,E
1538421395.4,286046999.8,N
1538421415.3,286046998.3,P
1538421435.1,286046998.9,N
1538421455.8,286046999.0,N
1538421475.7,286047000.4,N
1538421495.5,286046998.8,N
1538421515.3,286046999.9,N
1538421535.2,286047003.3,Y
1538421555.0,286047006.1,P
1538421555.9,286047006.1,N
1538421575.8,286047007.0,N
1538421595.6,286047006.6,N
1538421615.4,286047006.4,N
1538421635.3,286047005.8,N
1538421655.1,286047005.9,N
1538421675.9,286047001.3,N
1538421695.7,286047003.2,N
1538421715.5,286046999.8,N
1538421735.4,286047000.1,N
1538421755.2,286047007.3,N
1538421775.0,286047007.0,N
1538421775.9,286047007.0,N
1538421795.8,286047008.5,N
1538421815.6,286047005.4,N
1538421835.4,286047003.8,N
1538421855.3,286047004.2,N
1538421875.1,286047004.7,N
1538421895.9,286047003.0,N
1538421915.7,286047003.2,N
1538421935.5,286047006.9,N
1538421955.4,286047007.0,N
1538421975.2,286047003.2,N
1538421995.1,286047008.7,Y
1538421996.0,286047008.7,P
1538422015.8,286047001.8,N
1538422035.6,286047002.3,N
1538422055.5,286046999.8,N
1538422075.3,286046998.6,N
1538422095.1,286046998.3,N
1538422115.9,286046998.8,N
1538422135.7,286047000.4,N
1538422155.6,286046999.2,N
1538422175.4,286046995.1,N
1538422195.2,286046995.6,N
1538422215.1,286046996.0,N
1538422216.0,286046996.0,N
1538422235.8,286046997.5,N
1538422255.6,286046997.5,N
1538422275.5,286046997.2,N
1538422295.3,286046995.7,N
1538422315.2,286046993.4,N
1538422335.9,286047001.0,N
1538422355.7,286047002.6,N
1538422375.6,286047001.9,N
1538422395.4,286047002.8,N
1538422415.2,286046999.0,N
1538422435.1,286047000.3,N
1538422436.0,286047000.3,N
1538422455.8,286047001.3,N
1538422475.7,286047002.1,N
1538422495.5,286047002.5,N
1538422515.3,286047004.0,N
1538422535.2,286047001.8,N
1538422555.9,286047001.9,N
1538422575.7,286047000.1,N
1538422595.6,286047002.2,N
1538422615.4,286047000.6,N
1538422635.2,286046999.9,N
1538422655.1,286047002.4,N
1538422656.0,286047002.4,N
1538422675.8,286047000.6,N
1538422695.6,286047004.3,N
1538422715.4,286047004.3,N
1538422735.3,286047005.7,N
1538422755.1,286047003.2,N
1538422775.9,286047005.9,N
1538422795.7,286047005.1,N
1538422815.5,286047005.3,N
1538422835.4,286047006.3,N
1538422855.2,286047004.9,N
1538422875.0,286047005.7,N
1538422875.9,286047005.7,N
1538422895.8,286047004.8,N
1538422915.6,286047005.4,N
1538422935.5,286047005.4,N
1538422955.3,286047006.2,N
1538422975.6,286047007.1,Y
1538422995.4,286046998.5,P
1538423015.3,286046998.3,N
1538423035.1,286047002.1,N
1538423055.8,286047002.9,N
1538423075.7,286047004.8,N
1538423095.5,286047003.9,N
1538423115.3,286047000.2,N
1538423135.2,286047003.8,N
1538423155.0,286047003.4,N
1538423155.9,286047003.4,N
1538423175.8,286047002.3,N
1538423195.6,286047003.2,N
1538423215.4,286047004.2,N
1538423235.3,286047002.7,N
1538423255.1,286047002.4,N
1538423275.8,286047003.5,N
1538423295.7,286047005.6,Y
1538423315.5,286047001.7,P
1538423335.4,286046998.7,P
1538423355.2,286046996.9,N
1538423375.0,286046996.9,N
1538423375.9,286046996.9,N
1538423395.8,286046997.4,N
1538423415.6,286046999.4,N
1538423435.4,286047002.3,N
1538423455.3,286046999.7,N
1538423475.1,286047000.2,N
1538423495.9,286046999.6,N
1538423515.7,286046997.1,N
1538423535.5,286047002.7,N
1538423555.4,286047001.0,N
1538423575.2,286047000.3,N
1538423595.0,286047002.0,N
1538423595.9,286047002.0,N
1538423615.8,286047002.2,N
1538423635.6,286047001.2,N
1538423655.5,286047002.8,N
1538423675.3,286047000.6,N
1538423695.1,286046998.2,N
1538423715.9,286047002.3,N
1538423735.7,286047001.6,N
1538423755.5,286047000.9,N
1538423775.4,286047001.2,N
1538423795.2,286047003.6,N
1538423815.1,286047003.8,N
1538423816.0,286047003.8,N
1538423835.8,286047000.7,N
1538423855.6,286047001.1,N
1538423875.5,286046998.6,N
1538423895.3,286046999.9,N
1538423915.1,286047001.8,N
1538423935.9,286047003.4,N
1538423955.7,286047002.9,N
1538423975.6,286047004.8,N
1538423995.4,286047003.2,N
